• Join FlightAware (Why Join?)
  • Login
  • US Flag 
08:11AM EST


 

Airport Tracker/Info


-or-


 

Live Flight TrackerFlight Track Log ✈ SWA1035 ✈ 08-Oct-2013 ✈ KOAK - KLAX

Flight Track Log - Related Links

Times and Time Zones

All times are in EDT time to prevent confusion due to time zone crossing. See the SWA1035 flight status page for this flight to view local times or setup timezone preferences in your user account.

Time Position Orientation Groundspeed Altitude Reporting Facility
EDT Latitude Longitude Course Direction KTS MPH feet Rate Location/Type
11:18PM 37.7333 -122.2667 288° West 185 213 2,000  Level Northern Cal TRACON
11:19PM 37.7500 -122.3333 288° West 213 245 4,700 3,247 Climbing Northern Cal TRACON
11:21PM 37.6600 -122.2947 161° South 268 308 11,200 3,789 Climbing Oakland Center
11:22PM 37.5894 -122.2117 137° Southeast 327 376 15,500 3,885 Climbing Oakland Center
11:23PM 37.5144 -122.1219 136° Southeast 360 414 19,100 3,934 Climbing Oakland Center
11:24PM 37.4147 -122.0028 136° Southeast 407 468 23,500 3,787 Climbing Oakland Center
11:25PM 37.3275 -121.8992 137° Southeast 426 490 26,800 2,951 Climbing Oakland Center
11:26PM 37.2378 -121.7931 137° Southeast 441 507 29,500 2,410 Climbing Oakland Center
11:27PM 37.1428 -121.6828 137° Southeast 461 531 31,700 2,262 Climbing Oakland Center
11:28PM 37.0492 -121.5747 137° Southeast 476 548 34,100 2,182 Climbing Oakland Center
11:29PM 36.9475 -121.4544 137° Southeast 481 554 36,100 1,934 Climbing Oakland Center
11:30PM 36.8467 -121.3378 137° Southeast 492 566 38,000 1,377 Climbing Oakland Center
11:31PM 36.7547 -121.2294 137° Southeast 477 549 38,900 246 Climbing Oakland Center
11:32PM 36.6611 -121.1281 139° Southeast 452 520 38,500 -934 Descending Oakland Center
11:33PM 36.5683 -121.0206 137° Southeast 455 524 37,000 -1,180 Descending Oakland Center
11:34PM 36.4747 -120.9125 137° Southeast 459 528 36,100 -984 Descending Oakland Center
11:35PM 36.3600 -120.7839 138° Southeast 462 532 35,000 -541 Descending Oakland Center
11:36PM 36.2656 -120.6736 137° Southeast 466 536 35,000  Level Oakland Center
11:37PM 36.1708 -120.5667 138° Southeast 461 531 35,000  Level Oakland Center
11:38PM 36.1183 -120.4292 115° Southeast 455 524 35,000  Level Oakland Center
11:39PM 36.1056 -120.2747 96° East 450 518 35,000  Level Oakland Center
11:41PM 36.0933 -120.1175 95° East 455 524 35,000  Level Oakland Center
11:42PM 36.0458 -119.9764 113° Southeast 463 533 35,000  Level Oakland Center
11:43PM 35.9336 -119.9067 153° Southeast 457 526 35,000  Level Oakland Center
11:43PM 35.8392 -119.8694 162° South 443 510 35,000  Level Los Angeles Center
11:44PM 35.7214 -119.8239 163° South 441 507 35,000  Level Los Angeles Center
11:45PM 35.6039 -119.7778 162° South 439 505 35,000  Level Los Angeles Center
11:46PM 35.4886 -119.7322 162° South 434 499 35,000  Level Los Angeles Center
11:47PM 35.3736 -119.6886 163° South 431 496 35,000  Level Los Angeles Center
11:48PM 35.2600 -119.6422 162° South 429 494 35,000  Level Los Angeles Center
11:50PM 35.1406 -119.5428 146° Southeast 431 496 35,000  Level Los Angeles Center
11:51PM 35.0422 -119.4592 145° Southeast 431 496 35,000 -732 Level Los Angeles Center
11:52PM 34.9439 -119.3744 145° Southeast 432 497 33,500 -2,098 Descending Los Angeles Center
11:53PM 34.8453 -119.2906 145° Southeast 433 498 30,700 -2,780 Descending Los Angeles Center
11:54PM 34.7464 -119.2069 145° Southeast 432 497 27,800 -2,683 Descending Los Angeles Center
11:55PM 34.6511 -119.1269 145° Southeast 419 482 25,200 -2,683 Descending Los Angeles Center
11:56PM 34.5450 -119.0400 146° Southeast 413 475 22,300 -2,683 Descending Los Angeles Center
11:57PM 34.4539 -118.9633 145° Southeast 401 461 19,700 -2,537 Descending Los Angeles Center
11:58PM 34.3650 -118.8897 146° Southeast 386 444 17,100 -2,537 Descending Los Angeles Center
11:59PM 34.2681 -118.8494 161° South 366 421 14,500 -2,098 Descending Los Angeles Center
12:00AM 34.1772 -118.8153 163° South 341 392 12,800 -1,610 Descending Los Angeles Center
12:01AM 34.0972 -118.7856 163° South 305 351 11,200 -1,268 Descending Los Angeles Center
12:02AM 34.0339 -118.7161 138° Southeast 285 328 10,200 -639 Descending Los Angeles Center
12:03AM 34.0253 -118.6200 96° East 286 329 9,900 -878 Descending Los Angeles Center
12:04AM 34.0158 -118.5189 96° East 281 323 8,400 -1,366 Descending Los Angeles Center
12:05AM 34.0156 -118.4303 90° East 271 312 7,100 -1,268 Descending Los Angeles Center
12:06AM 34.0247 -118.3403 83° East 270 311 5,800 -1,122 Descending Los Angeles Center
12:07AM 34.0342 -118.2525 83° East 266 306 4,800 -780 Descending Los Angeles Center
12:08AM 34.0417 -118.1797 83° East 239 275 4,200 -878 Descending Los Angeles Center
12:09AM 34.0450 -118.1189 86° East 195 224 3,000 -800 Descending Los Angeles Center
12:10AM 33.9914 -118.1244 185° South 182 209 2,400 -356 Descending Los Angeles Center
12:11AM 33.9733 -118.1847 250° West 191 220 2,200 -146 Descending Los Angeles Center
12:12AM 33.9675 -118.2489 264° West 193 222 2,100 -341 Descending Los Angeles Center
12:13AM 33.9619 -118.3158 264° West 180 207 1,500 -639 Descending Los Angeles Center
12:14AM 33.9572 -118.3603 263° West 155 178 800 -634 Descending Los Angeles Center
12:15AM 33.9525 -118.4003 262° West 134 154 200 -581 Descending Los Angeles Center
12:17AM 33.9425 -118.4081 247° West  Level Estimated